This is the latest recevied weather packets stored in our database for station/object HB0PJ-13. If no packets are shown the sender has not sent any weather packets the latest 1 day(s).
| Time | Temp. | Humidity | Pressure | Rain* | Wind** | Luminosity | Snow |
|---|---|---|---|---|---|---|---|
| 1778077926 | 15° C | 50% | 951.5 hPa | - | - | 7 W/m² | - |
| 1778077686 | 15° C | 50% | 951.1 hPa | - | - | 12 W/m² | - |
| 1778077446 | 15.56° C | 47% | 951.1 hPa | - | - | 13 W/m² | - |
| 1778077326 | 16.11° C | 46% | 950.9 hPa | - | - | 12 W/m² | - |
| 1778077086 | 16.67° C | 48% | 951 hPa | - | - | 17 W/m² | - |
| 1778076966 | 16.67° C | 45% | 950.8 hPa | - | - | 18 W/m² | - |
| 1778076846 | 16.67° C | 44% | 951 hPa | - | - | 18 W/m² | - |
| 1778076726 | 16.67° C | 44% | 950.8 hPa | - | - | 20 W/m² | - |
| 1778076486 | 17.22° C | 44% | 950.6 hPa | - | - | 24 W/m² | - |
| 1778076366 | 17.22° C | 44% | 950.8 hPa | - | - | 27 W/m² | - |
| 1778076006 | 17.22° C | 44% | 950.6 hPa | - | - | 31 W/m² | - |
| 1778075886 | 17.78° C | 43% | 950.5 hPa | - | - | 30 W/m² | - |
| 1778075646 | 17.78° C | 42% | 950.5 hPa | - | - | 25 W/m² | - |
| 1778075526 | 18.89° C | 41% | 950.6 hPa | - | - | 24 W/m² | - |
| 1778075286 | 20° C | 41% | 950.4 hPa | - | - | 25 W/m² | - |
| 1778075166 | 20.56° C | 42% | 950.3 hPa | - | - | 26 W/m² | - |
| 1778075046 | 20.56° C | 42% | 950.2 hPa | - | - | 26 W/m² | - |
| 1778074926 | 20.56° C | 43% | 950.2 hPa | - | - | 28 W/m² | - |
| 1778074806 | 20.56° C | 43% | 950.1 hPa | - | - | 29 W/m² | - |
| 1778074686 | 20.56° C | 42% | 950.1 hPa | - | - | 30 W/m² | - |
| 1778074566 | 20.56° C | 42% | 950 hPa | - | - | 32 W/m² | - |
| 1778074326 | 20.56° C | 42% | 950 hPa | - | - | 34 W/m² | - |
| 1778074086 | 21.11° C | 42% | 949.9 hPa | - | - | 31 W/m² | - |
| 1778073966 | 21.11° C | 41% | 949.9 hPa | - | - | 31 W/m² | - |
| 1778073366 | 21.11° C | 42% | 949.8 hPa | - | - | 47 W/m² | - |
* Rain since midnight (hover to see other rain measurements)
** Current wind speed in m/s (hover to see current wind gust speed)